| time (UTC) | temp F | wind direction | speed MPH | gust MPH | rain 1hr in | rain 24hr in | rain mn in | humidity % | barometer mb |
| 20260901212016 | 87 | 291 | 1.0 | 5.0 | 0.00 | 0.00 | 0.00 | 79 | 1017.8 |
| 20260901211016 | 87 | 292 | 0.0 | 1.0 | 0.00 | 0.00 | 0.00 | 79 | 1018.0 |
| 20260901210016 | 88 | 291 | 0.0 | 2.0 | 0.00 | 0.00 | 0.00 | 78 | 1018.1 |
| 20260901205056 | 88 | 288 | 0.0 | 3.0 | 0.00 | 0.00 | 0.00 | 78 | 1018.0 |
| 20260901204015 | 90 | 273 | 0.0 | 3.0 | 0.00 | 0.00 | 0.00 | 77 | 1017.9 |
| 20260901203016 | 90 | 287 | 1.0 | 4.0 | 0.00 | 0.00 | 0.00 | 77 | 1017.9 |
| 20260901202516 | 90 | 283 | 1.0 | 4.0 | 0.00 | 0.00 | 0.00 | 76 | 1017.8 |
| 20260901201516 | 91 | 294 | 0.0 | 5.0 | 0.00 | 0.00 | 0.00 | 74 | 1018.0 |
| 20260901200516 | 92 | 267 | 0.0 | 4.0 | 0.00 | 0.00 | 0.00 | 70 | 1017.9 |
| 20260901195516 | 93 | 283 | 1.0 | 4.0 | 0.00 | 0.00 | 0.00 | 71 | 1017.8 |
| 20260901194538 | 93 | 231 | 1.0 | 4.0 | 0.00 | 0.00 | 0.00 | 69 | 1018.1 |
| 20260901193516 | 93 | 180 | 0.0 | 3.0 | 0.00 | 0.00 | 0.00 | 69 | 1018.3 |
| 20260901192516 | 93 | 280 | 1.0 | 3.0 | 0.00 | 0.00 | 0.00 | 70 | 1018.4 |
| 20260901191515 | 93 | 273 | 1.0 | 4.0 | 0.00 | 0.00 | 0.00 | 68 | 1018.4 |
| 20260901190520 | 93 | 200 | 0.0 | 4.0 | 0.00 | 0.00 | 0.00 | 70 | 1018.5 |
| 20260901185518 | 93 | 266 | 1.0 | 3.0 | 0.00 | 0.00 | 0.00 | 70 | 1018.6 |
| 20260901184518 | 92 | 154 | 1.0 | 4.0 | 0.00 | 0.00 | 0.00 | 70 | 1018.7 |
| 20260901183518 | 92 | 180 | 1.0 | 5.0 | 0.00 | 0.00 | 0.00 | 69 | 1018.7 |
| 20260901182518 | 92 | 225 | 1.0 | 3.0 | 0.00 | 0.00 | 0.00 | 69 | 1018.8 |
| 20260901181518 | 92 | 184 | 2.0 | 5.0 | 0.00 | 0.00 | 0.00 | 68 | 1018.9 |
| 20260901180518 | 92 | 178 | 1.0 | 5.0 | 0.00 | 0.00 | 0.00 | 69 | 1018.9 |
| 20260901175538 | 91 | 180 | 0.0 | 2.0 | 0.00 | 0.00 | 0.00 | 72 | 1019.1 |
| 20260901174518 | 92 | 241 | 1.0 | 5.0 | 0.00 | 0.00 | 0.00 | 71 | 1019.4 |
| 20260901173520 | 92 | 226 | 0.0 | 6.0 | 0.00 | 0.00 | 0.00 | 71 | 1019.4 |
| 20260901172518 | 91 | 98 | 0.0 | 2.0 | 0.00 | 0.00 | 0.00 | 72 | 1019.5 |
| 20260901172018 | 92 | 186 | 2.0 | 5.0 | 0.00 | 0.00 | 0.00 | 72 | 1019.6 |
| 20260901171019 | 92 | 170 | 1.0 | 5.0 | 0.00 | 0.00 | 0.00 | 71 | 1019.7 |
| 20260901170018 | 92 | 166 | 1.0 | 4.0 | 0.00 | 0.00 | 0.00 | 72 | 1019.8 |
| 20260901165018 | 92 | 188 | 1.0 | 5.0 | 0.00 | 0.00 | 0.00 | 71 | 1020.0 |
| 20260901164017 | 91 | 188 | 0.0 | 4.0 | 0.00 | 0.00 | 0.00 | 71 | 1019.9 |
| 20260901163018 | 92 | 166 | 1.0 | 4.0 | 0.00 | 0.00 | 0.00 | 70 | 1020.0 |
| 20260901162017 | 91 | 187 | 1.0 | 3.0 | 0.00 | 0.00 | 0.00 | 71 | 1019.9 |
| 20260901161520 | 90 | 125 | 1.0 | 6.0 | 0.00 | 0.00 | 0.00 | 72 | 1019.9 |
| 20260901160518 | 90 | 106 | 1.0 | 3.0 | 0.00 | 0.00 | 0.00 | 71 | 1020.0 |
| 20260901155516 | 90 | 111 | 1.0 | 5.0 | 0.00 | 0.00 | 0.00 | 73 | 1020.0 |
| 20260901154518 | 91 | 154 | 1.0 | 4.0 | 0.00 | 0.00 | 0.00 | 73 | 1020.0 |
| 20260901153018 | 90 | 180 | 0.0 | 4.0 | 0.00 | 0.00 | 0.00 | 78 | 1020.0 |
| 20260901152158 | 88 | 66 | 0.0 | 1.0 | 0.00 | 0.00 | 0.00 | 78 | 1020.1 |
| 20260901151018 | 88 | 75 | 0.0 | 3.0 | 0.00 | 0.00 | 0.00 | 78 | 1020.0 |
| 20260901150018 | 88 | 80 | 1.0 | 5.0 | 0.00 | 0.00 | 0.00 | 78 | 1020.0 |
| 20260901145018 | 88 | 54 | 0.0 | 3.0 | 0.00 | 0.00 | 0.00 | 79 | 1019.9 |
| 20260901144018 | 89 | 76 | 0.0 | 4.0 | 0.00 | 0.00 | 0.00 | 79 | 1019.8 |
| 20260901143038 | 88 | 56 | 0.0 | 3.0 | 0.00 | 0.00 | 0.00 | 81 | 1019.8 |
| 20260901142018 | 88 | 0.0 | 0.0 | 0.00 | 0.00 | 0.00 | 82 | 1019.8 | |
| 20260901141518 | 88 | 0.0 | 0.0 | 0.00 | 0.00 | 0.00 | 82 | 1019.7 | |
| 20260901140518 | 87 | 60 | 0.0 | 1.0 | 0.00 | 0.00 | 0.00 | 83 | 1019.6 |
| 20260901135517 | 86 | 84 | 0.0 | 4.0 | 0.00 | 0.00 | 0.00 | 84 | 1019.7 |
| 20260901134518 | 86 | 82 | 1.0 | 4.0 | 0.00 | 0.00 | 0.00 | 84 | 1019.7 |
| 20260901133518 | 86 | 64 | 1.0 | 3.0 | 0.00 | 0.00 | 0.00 | 86 | 1019.8 |
| 20260901132517 | 85 | 51 | 0.0 | 4.0 | 0.00 | 0.00 | 0.00 | 87 | 1019.8 |
| 20260901131517 | 85 | 68 | 0.0 | 2.0 | 0.00 | 0.00 | 0.00 | 89 | 1019.9 |
| 20260901130518 | 84 | 72 | 0.0 | 4.0 | 0.00 | 0.00 | 0.00 | 90 | 1019.8 |
| 20260901125518 | 83 | 56 | 0.0 | 4.0 | 0.00 | 0.00 | 0.00 | 93 | 1019.9 |
| 20260901124518 | 82 | 52 | 0.0 | 1.0 | 0.00 | 0.00 | 0.00 | 96 | 1019.8 |
| 20260901123518 | 81 | 73 | 0.0 | 2.0 | 0.00 | 0.00 | 0.00 | 98 | 1019.7 |
| 20260901122518 | 80 | 78 | 0.0 | 2.0 | 0.00 | 0.00 | 0.00 | 99 | 1019.6 |
| 20260901121518 | 79 | 96 | 0.0 | 1.0 | 0.00 | 0.00 | 0.00 | 99 | 1019.5 |
| 20260901120517 | 78 | 0.0 | 0.0 | 0.00 | 0.00 | 0.00 | 99 | 1019.3 | |
| 20260901115521 | 78 | 0.0 | 0.0 | 0.00 | 0.00 | 0.00 | 99 | 1019.2 | |
| 20260901114516 | 78 | 0.0 | 0.0 | 0.00 | 0.00 | 0.00 | 99 | 1019.0 | |
| 20260901113517 | 78 | 0.0 | 0.0 | 0.00 | 0.00 | 0.00 | 99 | 1018.9 | |
| 20260901112516 | 78 | 0.0 | 0.0 | 0.00 | 0.00 | 0.00 | 98 | 1018.8 | |
| 20260901111518 | 78 | 0.0 | 0.0 | 0.00 | 0.00 | 0.00 | 98 | 1018.5 | |
| 20260901110517 | 78 | 0.0 | 0.0 | 0.00 | 0.00 | 0.00 | 98 | 1018.4 | |
| 20260901105519 | 78 | 0.0 | 0.0 | 0.00 | 0.00 | 0.00 | 98 | 1018.3 | |
| 20260901104518 | 78 | 0.0 | 0.0 | 0.00 | 0.00 | 0.00 | 98 | 1018.2 | |
| 20260901103517 | 78 | 0.0 | 0.0 | 0.00 | 0.00 | 0.00 | 98 | 1018.1 | |
| 20260901102517 | 78 | 96 | 0.0 | 1.0 | 0.00 | 0.00 | 0.00 | 99 | 1018.0 |
| 20260901101536 | 77 | 0.0 | 0.0 | 0.00 | 0.00 | 0.00 | 98 | 1017.9 | |
| 20260901100517 | 77 | 0.0 | 0.0 | 0.00 | 0.00 | 0.00 | 98 | 1017.8 | |
| 20260901095517 | 77 | 0.0 | 0.0 | 0.00 | 0.00 | 0.00 | 98 | 1017.8 | |
| 20260901094517 | 77 | 0.0 | 0.0 | 0.00 | 0.00 | 0.00 | 98 | 1017.6 | |
| 20260901093519 | 77 | 0.0 | 0.0 | 0.00 | 0.00 | 0.00 | 98 | 1017.6 | |
| 20260901092517 | 77 | 0.0 | 0.0 | 0.00 | 0.00 | 0.00 | 98 | 1017.6 | |
| 20260901091538 | 77 | 0.0 | 0.0 | 0.00 | 0.00 | 0.00 | 98 | 1017.6 | |
| 20260901090517 | 77 | 0.0 | 0.0 | 0.00 | 0.00 | 0.00 | 97 | 1017.7 | |
| 20260901085517 | 77 | 0.0 | 0.0 | 0.00 | 0.00 | 0.00 | 97 | 1017.7 | |
| 20260901084537 | 77 | 0.0 | 0.0 | 0.00 | 0.00 | 0.00 | 97 | 1017.7 | |
| 20260901083537 | 77 | 0.0 | 0.0 | 0.00 | 0.00 | 0.00 | 97 | 1017.7 | |
| 20260901082516 | 77 | 0.0 | 0.0 | 0.00 | 0.00 | 0.00 | 97 | 1017.8 | |
| 20260901081517 | 77 | 0.0 | 0.0 | 0.00 | 0.00 | 0.00 | 97 | 1017.8 | |
| 20260901080516 | 77 | 0.0 | 0.0 | 0.00 | 0.00 | 0.00 | 97 | 1017.9 | |
| 20260901075517 | 77 | 0.0 | 0.0 | 0.00 | 0.01 | 0.00 | 97 | 1017.8 | |
| 20260901074517 | 77 | 0.0 | 0.0 | 0.00 | 0.01 | 0.00 | 97 | 1017.8 | |
| 20260901073517 | 78 | 0.0 | 0.0 | 0.00 | 0.01 | 0.00 | 96 | 1017.7 | |
| 20260901072517 | 78 | 0.0 | 0.0 | 0.00 | 0.01 | 0.00 | 96 | 1017.8 | |
| 20260901071517 | 78 | 0.0 | 0.0 | 0.00 | 0.01 | 0.00 | 97 | 1017.9 | |
| 20260901070517 | 78 | 0.0 | 0.0 | 0.00 | 0.01 | 0.00 | 96 | 1017.9 | |
| 20260901065517 | 78 | 0.0 | 0.0 | 0.00 | 0.01 | 0.00 | 96 | 1018.0 | |
| 20260901064517 | 78 | 0.0 | 0.0 | 0.00 | 0.01 | 0.00 | 96 | 1018.2 | |
| 20260901063557 | 78 | 0.0 | 0.0 | 0.00 | 0.01 | 0.00 | 96 | 1018.3 | |
| 20260901062517 | 78 | 0.0 | 0.0 | 0.00 | 0.03 | 0.00 | 96 | 1018.4 | |
| 20260901061517 | 78 | 0.0 | 0.0 | 0.00 | 0.04 | 0.00 | 96 | 1018.4 | |
| 20260901060517 | 78 | 0.0 | 0.0 | 0.00 | 0.04 | 0.00 | 95 | 1018.3 | |
| 20260901055517 | 78 | 0.0 | 0.0 | 0.00 | 0.05 | 0.00 | 95 | 1018.4 | |
| 20260901054517 | 79 | 0.0 | 0.0 | 0.00 | 0.15 | 0.00 | 95 | 1018.4 | |
| 20260901053517 | 79 | 0.0 | 0.0 | 0.00 | 0.15 | 0.00 | 95 | 1018.5 | |
| 20260901052517 | 79 | 0.0 | 0.0 | 0.00 | 0.15 | 0.00 | 95 | 1018.5 | |
| 20260901051517 | 79 | 0.0 | 0.0 | 0.00 | 0.15 | 0.00 | 95 | 1018.4 | |
| 20260901050537 | 79 | 0.0 | 0.0 | 0.00 | 0.15 | 0.00 | 94 | 1018.5 | |
| 20260901045517 | 79 | 0.0 | 0.0 | 0.00 | 0.15 | 0.15 | 94 | 1018.5 | |
| 20260901044516 | 79 | 0.0 | 0.0 | 0.00 | 0.15 | 0.15 | 94 | 1018.5 | |
| 20260901043517 | 79 | 0.0 | 0.0 | 0.00 | 0.15 | 0.15 | 94 | 1018.5 | |
| 20260901042517 | 79 | 0.0 | 0.0 | 0.00 | 0.15 | 0.15 | 93 | 1018.4 | |
| 20260901041516 | 80 | 0.0 | 0.0 | 0.00 | 0.15 | 0.15 | 93 | 1018.4 | |
| 20260901040537 | 80 | 0.0 | 0.0 | 0.00 | 0.15 | 0.15 | 92 | 1018.5 | |
| 20260901035517 | 80 | 0.0 | 0.0 | 0.00 | 0.15 | 0.15 | 91 | 1018.6 | |
| 20260901034519 | 81 | 0.0 | 0.0 | 0.00 | 0.15 | 0.15 | 91 | 1018.7 | |
| 20260901033517 | 81 | 0.0 | 0.0 | 0.00 | 0.15 | 0.15 | 90 | 1018.7 | |
| 20260901032517 | 82 | 0.0 | 0.0 | 0.00 | 0.15 | 0.15 | 89 | 1018.8 | |
| 20260901031517 | 82 | 0.0 | 0.0 | 0.00 | 0.15 | 0.15 | 87 | 1018.7 | |
| 20260901030518 | 83 | 0.0 | 0.0 | 0.00 | 0.15 | 0.15 | 87 | 1018.7 | |
| 20260901025517 | 83 | 0.0 | 0.0 | 0.00 | 0.15 | 0.15 | 87 | 1018.6 | |
| 20260901024537 | 83 | 0.0 | 0.0 | 0.00 | 0.15 | 0.15 | 86 | 1018.6 | |
| 20260901023537 | 83 | 0.0 | 0.0 | 0.00 | 0.15 | 0.15 | 86 | 1018.5 | |
| 20260901022517 | 83 | 0.0 | 1.0 | 0.00 | 0.15 | 0.15 | 86 | 1018.3 | |
| 20260901021537 | 84 | 165 | 0.0 | 1.0 | 0.00 | 0.15 | 0.15 | 85 | 1018.4 |
| 20260901020517 | 84 | 0.0 | 1.0 | 0.00 | 0.15 | 0.15 | 86 | 1018.4 | |
| 20260901015537 | 84 | 197 | 0.0 | 1.0 | 0.00 | 0.15 | 0.15 | 86 | 1018.4 |
| 20260901014517 | 84 | 195 | 0.0 | 1.0 | 0.00 | 0.15 | 0.15 | 86 | 1018.4 |
| 20260901013517 | 84 | 0.0 | 1.0 | 0.00 | 0.15 | 0.15 | 85 | 1018.4 | |
| 20260901012536 | 84 | 0.0 | 0.0 | 0.00 | 0.15 | 0.15 | 86 | 1018.3 | |
| 20260901011517 | 84 | 0.0 | 0.0 | 0.00 | 0.15 | 0.15 | 85 | 1018.3 | |
| 20260901010517 | 84 | 0.0 | 0.0 | 0.00 | 0.15 | 0.15 | 84 | 1018.1 | |
| 20260901005516 | 84 | 0.0 | 1.0 | 0.00 | 0.15 | 0.15 | 84 | 1018.0 | |
| 20260901004516 | 84 | 273 | 0.0 | 1.0 | 0.00 | 0.15 | 0.15 | 85 | 1018.0 |
| 20260901003536 | 85 | 258 | 0.0 | 1.0 | 0.00 | 0.15 | 0.15 | 86 | 1017.8 |
| 20260901002517 | 85 | 247 | 0.0 | 1.0 | 0.00 | 0.15 | 0.15 | 86 | 1017.7 |
| 20260901001517 | 85 | 152 | 0.0 | 1.0 | 0.00 | 0.15 | 0.15 | 84 | 1017.7 |
| 20260901000516 | 85 | 262 | 0.0 | 1.0 | 0.00 | 0.15 | 0.15 | 84 | 1017.8 |
| 20260831235516 | 86 | 256 | 0.0 | 1.0 | 0.00 | 0.15 | 0.15 | 83 | 1017.7 |
| 20260831234517 | 86 | 266 | 0.0 | 2.0 | 0.00 | 0.15 | 0.15 | 83 | 1017.8 |
| 20260831233517 | 86 | 250 | 0.0 | 3.0 | 0.00 | 0.15 | 0.15 | 82 | 1017.8 |
| 20260831232517 | 87 | 180 | 0.0 | 1.0 | 0.00 | 0.15 | 0.15 | 82 | 1017.9 |
| 20260831231537 | 87 | 245 | 0.0 | 2.0 | 0.00 | 0.15 | 0.15 | 82 | 1017.9 |
| 20260831230516 | 87 | 281 | 0.0 | 2.0 | 0.00 | 0.15 | 0.15 | 82 | 1018.0 |
| 20260831225517 | 87 | 246 | 1.0 | 3.0 | 0.00 | 0.15 | 0.15 | 82 | 1018.0 |
| 20260831224516 | 87 | 159 | 0.0 | 4.0 | 0.00 | 0.15 | 0.15 | 79 | 1018.1 |
| 20260831223517 | 88 | 269 | 0.0 | 2.0 | 0.00 | 0.15 | 0.15 | 79 | 1018.0 |
| 20260831222536 | 88 | 196 | 0.0 | 3.0 | 0.00 | 0.15 | 0.15 | 79 | 1018.1 |
| 20260831221517 | 88 | 151 | 0.0 | 3.0 | 0.00 | 0.15 | 0.15 | 79 | 1018.1 |
| 20260831220516 | 88 | 226 | 1.0 | 3.0 | 0.00 | 0.15 | 0.15 | 78 | 1018.0 |
| 20260831215516 | 89 | 168 | 1.0 | 4.0 | 0.00 | 0.15 | 0.15 | 77 | 1018.0 |
| 20260831214517 | 89 | 199 | 1.0 | 7.0 | 0.00 | 0.15 | 0.15 | 77 | 1018.1 |
| 20260831213516 | 90 | 162 | 1.0 | 6.0 | 0.00 | 0.15 | 0.15 | 75 | 1018.3 |
| 20260831212516 | 90 | 202 | 1.0 | 6.0 | 0.00 | 0.15 | 0.15 | 76 | 1018.4 |